St. Augustine, FL

1:07 AM EDT on July 22, 2017 (GMT -0400)
Saint Augustine

Weather History for KSGJ - January, 2013

Change the Weather History Date:

Saturday, January 19, 2013

  Actual Average Record
Temperature  
Mean Temperature 58 °F -  
Max Temperature 62 °F 62 °F 82 °F (2001)
Min Temperature 55 °F 44 °F 21 °F (1977)
Degree Days  
Heating Degree Days 6    
Growing Degree Days 8 (Base 50)    
Moisture  
Dew Point 54 °F    
Average Humidity 86    
Maximum Humidity 97    
Minimum Humidity 75    
Precipitation  
Precipitation 0.00 in - - ()
Sea Level Pressure  
Sea Level Pressure 30.29 in    
Wind  
Wind Speed 15 mph (North)    
Max Wind Speed 20 mph    
Max Gust Speed 28 mph    
Visibility 8 miles    
Events Rain    
Averages and records for this station are not official NWS values.
T = Trace of Precipitation, MM = Missing Value Source: NWS Daily Summary

Daily Weather History Graph

Daily Weather History Graph

Search for Another Location

Airport or City:

Trip Planner

Search our weather history database for the weather conditions in past years. The results will help you decide how hot, cold, wet, or windy it might be!

Date:

Astronomy

Jan. 19, 2013 Rise Set
Actual Time 7:21 AM EST 5:51 PM EST
Civil Twilight 6:55 AM EST 6:17 PM EST
Nautical Twilight 6:26 AM EST 6:46 PM EST
Astronomical Twilight 5:57 AM EST 7:15 PM EST
Moon 12:12 PM EST (1/19) 1:00 AM EST (1/19)
Length of Visible Light 11h 21m
Length of Day
10h 30m
First Quarter, 57% of the Moon is Illuminated
Jan 19
First Quarter
Jan 26
Full
Feb 3
Last Quarter
Feb 10
New
Feb 17
First Quarter

Hourly Weather History & Observations

Time (EST) Temp. Dew Point Humidity Pressure Visibility Wind Dir Wind Speed Gust Speed Precip Events Conditions
12:58 AM 59.0 °F 51.1 °F 75% 30.33 in 10.0 mi North 16.1 mph 25.3 mph N/A   Overcast
1:58 AM 59.0 °F 52.0 °F 78% 30.33 in 10.0 mi NNE 15.0 mph 21.9 mph 0.00 in Rain Light Rain
2:58 AM 59.0 °F 52.0 °F 78% 30.32 in 10.0 mi North 16.1 mph - 0.00 in   Overcast
3:58 AM 57.9 °F 52.0 °F 81% 30.32 in 10.0 mi North 17.3 mph - N/A   Overcast
4:45 AM 55.4 °F 51.8 °F 88% 30.32 in 10.0 mi North 15.0 mph 23.0 mph N/A   Overcast
4:58 AM 55.0 °F 50.0 °F 83% 30.32 in 10.0 mi North 15.0 mph - N/A   Overcast
5:20 AM 55.4 °F 50.0 °F 82% 30.33 in 10.0 mi North 16.1 mph 21.9 mph N/A   Overcast
5:58 AM 55.0 °F 51.1 °F 86% 30.32 in 10.0 mi North 17.3 mph - N/A   Overcast
6:58 AM 55.0 °F 50.0 °F 83% 30.32 in 10.0 mi North 19.6 mph 24.2 mph N/A   Clear
7:25 AM 55.4 °F 51.8 °F 88% 30.33 in 10.0 mi North 18.4 mph - N/A   Mostly Cloudy
7:58 AM 55.9 °F 52.0 °F 87% 30.34 in 6.0 mi North 17.3 mph 26.5 mph N/A   Mostly Cloudy
8:58 AM 57.9 °F 53.1 °F 84% 30.36 in 6.0 mi North 16.1 mph - N/A   Haze
9:58 AM 60.1 °F 55.0 °F 83% 30.37 in 6.0 mi North 16.1 mph 27.6 mph N/A   Haze
10:58 AM 60.1 °F 55.0 °F 83% 30.37 in 6.0 mi North 15.0 mph 23.0 mph N/A   Haze
11:58 AM 62.1 °F 55.9 °F 80% 30.34 in 6.0 mi North 18.4 mph 25.3 mph N/A   Haze
12:58 PM 62.1 °F 55.9 °F 80% 30.30 in 6.0 mi North 16.1 mph 23.0 mph N/A   Haze
1:58 PM 61.0 °F 55.9 °F 83% 30.27 in 9.0 mi North 17.3 mph - N/A   Overcast
2:58 PM 60.1 °F 55.0 °F 83% 30.25 in 3.0 mi North 18.4 mph 23.0 mph N/A   Haze
3:53 PM 59.0 °F 55.4 °F 88% 30.24 in 3.0 mi North 15.0 mph - N/A   Overcast
3:58 PM 59.0 °F 55.0 °F 87% 30.24 in 3.0 mi North 13.8 mph - N/A   Overcast
4:58 PM 59.0 °F 55.0 °F 87% 30.24 in 8.0 mi North 13.8 mph - N/A   Overcast
5:58 PM 59.0 °F 55.9 °F 90% 30.24 in 5.0 mi NNW 10.4 mph - N/A   Overcast
6:58 PM 60.1 °F 55.9 °F 86% 30.24 in 5.0 mi NNW 10.4 mph - N/A   Overcast
7:58 PM 57.9 °F 55.9 °F 93% 30.25 in 10.0 mi North 10.4 mph - N/A   Mostly Cloudy
8:10 PM 57.2 °F 55.4 °F 94% 30.25 in 10.0 mi North 10.4 mph - N/A   Mostly Cloudy
8:17 PM 57.2 °F 55.4 °F 94% 30.25 in 10.0 mi North 9.2 mph - N/A   Scattered Clouds
8:58 PM 57.9 °F 55.0 °F 90% 30.24 in 10.0 mi North 10.4 mph - N/A   Clear
9:58 PM 57.0 °F 55.0 °F 93% 30.23 in 9.0 mi North 10.4 mph - N/A   Clear
10:35 PM 57.2 °F 55.4 °F 94% 30.23 in 9.0 mi North 6.9 mph - N/A   Partly Cloudy
10:58 PM 57.0 °F 55.0 °F 93% 30.22 in 9.0 mi NNW 8.1 mph - N/A   Mostly Cloudy
11:58 PM 55.9 °F 55.0 °F 97% 30.21 in 9.0 mi NNW 6.9 mph - N/A   Scattered Clouds